Météo par heure à Allariz

Ce jour, 14 Mai, Vendredi

Heure Température Précipitation Vent Pression Humidité
00:00 +7°C° 0 mm 1 m/s 713 mmHg 95%
01:00 +7°C° 0 mm 1 m/s 713 mmHg 95%
02:00 +6°C° 0 mm 1 m/s 713 mmHg 94%
03:00 +6°C° 0 mm 1 m/s 713 mmHg 94%
04:00 +5°C° 0 mm 0 m/s 713 mmHg 94%
05:00 +5°C° 0 mm 0 m/s 714 mmHg 94%
06:00 +7°C° 0 mm 0 m/s 714 mmHg 84%
07:00 +9°C° 0 mm 0 m/s 714 mmHg 75%
08:00 +13°C° 0 mm 1 m/s 714 mmHg 65%
09:00 +14°C° 0 mm 1 m/s 714 mmHg 60%
10:00 +16°C° 0 mm 2 m/s 714 mmHg 56%
11:00 +17°C° 0 mm 2 m/s 714 mmHg 51%
12:00 +17°C° 0 mm 3 m/s 713 mmHg 54%
13:00 +17°C° 0 mm 3 m/s 713 mmHg 57%
14:00 +17°C° 0 mm 4 m/s 713 mmHg 60%
15:00 +17°C° 0 mm 3 m/s 713 mmHg 66%
16:00 +16°C° 0 mm 3 m/s 713 mmHg 71%
17:00 +15°C° 0 mm 2 m/s 712 mmHg 76%
18:00 +14°C° 0 mm 2 m/s 712 mmHg 81%
19:00 +13°C° 0 mm 2 m/s 712 mmHg 87%
20:00 +12°C° 0 mm 2 m/s 713 mmHg 92%
21:00 +12°C° 0 mm 2 m/s 712 mmHg 92%
22:00 +12°C° 0 mm 2 m/s 712 mmHg 92%
23:00 +12°C° 0 mm 2 m/s 712 mmHg 93%

Demain, 15 Mai, Samedi

Heure Température Précipitation Vent Pression Humidité
00:00 +12°C° 0 mm 2 m/s 711 mmHg 93%
01:00 +12°C° 0 mm 2 m/s 711 mmHg 93%
02:00 +12°C° 0 mm 2 m/s 710 mmHg 93%
03:00 +12°C° 0.2 mm 2 m/s 710 mmHg 94%
04:00 +12°C° 0.2 mm 2 m/s 710 mmHg 96%
05:00 +12°C° 0.2 mm 2 m/s 711 mmHg 97%
06:00 +13°C° 0.4 mm 2 m/s 711 mmHg 97%
07:00 +13°C° 0.4 mm 2 m/s 711 mmHg 97%
08:00 +13°C° 0.4 mm 2 m/s 711 mmHg 97%
09:00 +13°C° 0.3 mm 2 m/s 711 mmHg 97%
10:00 +14°C° 0.3 mm 2 m/s 711 mmHg 97%
11:00 +14°C° 0.3 mm 2 m/s 711 mmHg 97%
12:00 +14°C° 0.1 mm 2 m/s 711 mmHg 97%
13:00 +14°C° 0.1 mm 2 m/s 711 mmHg 97%
14:00 +15°C° 0.1 mm 2 m/s 711 mmHg 96%
15:00 +15°C° 0.1 mm 2 m/s 711 mmHg 96%
16:00 +15°C° 0.1 mm 2 m/s 711 mmHg 96%
17:00 +15°C° 0.1 mm 2 m/s 711 mmHg 96%
18:00 +15°C° 0.1 mm 2 m/s 711 mmHg 96%
19:00 +14°C° 0.1 mm 2 m/s 711 mmHg 96%
20:00 +14°C° 0.1 mm 2 m/s 711 mmHg 96%
21:00 +14°C° 0.1 mm 2 m/s 711 mmHg 96%
22:00 +14°C° 0.1 mm 2 m/s 711 mmHg 96%
23:00 +14°C° 0.1 mm 2 m/s 711 mmHg 96%

Après-demain, 16 Mai, Dimanche

Heure Température Précipitation Vent Pression Humidité
00:00 +14°C° 0.3 mm 2 m/s 710 mmHg 97%
01:00 +14°C° 0.3 mm 2 m/s 710 mmHg 97%
02:00 +14°C° 0.3 mm 2 m/s 710 mmHg 98%
03:00 +14°C° 0.3 mm 2 m/s 710 mmHg 98%
04:00 +14°C° 0.3 mm 2 m/s 710 mmHg 98%
05:00 +14°C° 0.3 mm 2 m/s 710 mmHg 98%
06:00 +14°C° 0.2 mm 1 m/s 711 mmHg 98%
07:00 +14°C° 0.2 mm 1 m/s 711 mmHg 98%
08:00 +14°C° 0.2 mm 1 m/s 711 mmHg 97%
09:00 +15°C° 0.3 mm 2 m/s 711 mmHg 93%
10:00 +16°C° 0.3 mm 2 m/s 712 mmHg 89%
11:00 +16°C° 0.3 mm 2 m/s 712 mmHg 85%
12:00 +16°C° 0.1 mm 3 m/s 712 mmHg 80%
13:00 +17°C° 0.1 mm 3 m/s 712 mmHg 75%
14:00 +17°C° 0.1 mm 3 m/s 712 mmHg 71%
15:00 +16°C° 0 mm 3 m/s 712 mmHg 71%
16:00 +16°C° 0 mm 3 m/s 712 mmHg 72%
17:00 +14°C° 0 mm 3 m/s 712 mmHg 72%
18:00 +13°C° 0 mm 2 m/s 713 mmHg 80%
19:00 +10°C° 0 mm 2 m/s 713 mmHg 87%
20:00 +9°C° 0 mm 1 m/s 714 mmHg 94%
21:00 +9°C° 0 mm 1 m/s 714 mmHg 95%
22:00 +8°C° 0 mm 1 m/s 714 mmHg 95%
23:00 +8°C° 0 mm 1 m/s 714 mmHg 96%

17 Mai, Lundi

Heure Température Précipitation Vent Pression Humidité
00:00 +8°C° 0 mm 1 m/s 714 mmHg 96%
01:00 +7°C° 0 mm 1 m/s 714 mmHg 96%
02:00 +7°C° 0 mm 1 m/s 714 mmHg 96%
03:00 +7°C° 0 mm 0 m/s 714 mmHg 94%
04:00 +7°C° 0 mm 0 m/s 715 mmHg 92%
05:00 +8°C° 0 mm 0 m/s 715 mmHg 90%
06:00 +10°C° 0 mm 1 m/s 715 mmHg 80%
07:00 +11°C° 0 mm 1 m/s 716 mmHg 70%
08:00 +12°C° 0 mm 2 m/s 716 mmHg 60%
09:00 +14°C° 0 mm 2 m/s 716 mmHg 54%
10:00 +15°C° 0 mm 2 m/s 716 mmHg 49%
11:00 +16°C° 0 mm 2 m/s 716 mmHg 44%
12:00 +17°C° 0 mm 2 m/s 716 mmHg 43%
13:00 +17°C° 0 mm 2 m/s 716 mmHg 42%
14:00 +18°C° 0 mm 2 m/s 716 mmHg 41%
15:00 +17°C° 0 mm 2 m/s 716 mmHg 46%
16:00 +17°C° 0 mm 2 m/s 716 mmHg 50%
17:00 +16°C° 0 mm 2 m/s 716 mmHg 54%
18:00 +14°C° 0 mm 2 m/s 716 mmHg 64%
19:00 +11°C° 0 mm 1 m/s 717 mmHg 73%
20:00 +9°C° 0 mm 1 m/s 717 mmHg 83%
21:00 +9°C° 0 mm 1 m/s 717 mmHg 84%
22:00 +8°C° 0 mm 1 m/s 717 mmHg 85%
23:00 +7°C° 0 mm 0 m/s 717 mmHg 85%

18 Mai, Mardi

Heure Température Précipitation Vent Pression Humidité
00:00 +7°C° 0 mm 1 m/s 716 mmHg 84%
01:00 +7°C° 0 mm 1 m/s 716 mmHg 83%
02:00 +7°C° 0 mm 1 m/s 716 mmHg 82%
03:00 +7°C° 0 mm 1 m/s 716 mmHg 79%
04:00 +8°C° 0 mm 1 m/s 716 mmHg 76%
05:00 +8°C° 0 mm 0 m/s 716 mmHg 73%
06:00 +11°C° 0 mm 1 m/s 716 mmHg 65%
07:00 +14°C° 0 mm 1 m/s 716 mmHg 57%
08:00 +16°C° 0 mm 1 m/s 716 mmHg 49%
09:00 +19°C° 0 mm 1 m/s 716 mmHg 46%
10:00 +19°C° 0 mm 2 m/s 716 mmHg 43%
11:00 +20°C° 0 mm 3 m/s 716 mmHg 40%
12:00 +20°C° 0 mm 3 m/s 716 mmHg 44%
13:00 +21°C° 0 mm 4 m/s 716 mmHg 47%
14:00 +21°C° 0 mm 4 m/s 716 mmHg 51%
15:00 +20°C° 0 mm 3 m/s 716 mmHg 56%
16:00 +19°C° 0 mm 3 m/s 716 mmHg 62%
17:00 +18°C° 0 mm 2 m/s 716 mmHg 68%
18:00 +16°C° 0 mm 2 m/s 716 mmHg 76%
19:00 +14°C° 0 mm 1 m/s 716 mmHg 84%
20:00 +13°C° 0 mm 1 m/s 717 mmHg 92%
21:00 +12°C° 0 mm 1 m/s 716 mmHg 92%
22:00 +12°C° 0 mm 1 m/s 716 mmHg 93%
23:00 +12°C° 0 mm 1 m/s 716 mmHg 93%

19 Mai, Mercredi

Heure Température Précipitation Vent Pression Humidité
00:00 +12°C° 0 mm 1 m/s 716 mmHg 93%
01:00 +12°C° 0 mm 1 m/s 716 mmHg 93%
02:00 +12°C° 0 mm 1 m/s 715 mmHg 93%
03:00 +12°C° 0 mm 1 m/s 716 mmHg 93%
04:00 +13°C° 0 mm 1 m/s 716 mmHg 92%
05:00 +13°C° 0 mm 1 m/s 716 mmHg 92%
06:00 +15°C° 0 mm 1 m/s 716 mmHg 83%
07:00 +18°C° 0 mm 1 m/s 716 mmHg 74%
08:00 +19°C° 0 mm 2 m/s 716 mmHg 65%
09:00 +20°C° 0 mm 2 m/s 716 mmHg 62%
10:00 +21°C° 0 mm 3 m/s 716 mmHg 58%
11:00 +22°C° 0 mm 3 m/s 716 mmHg 55%
12:00 +22°C° 0 mm 3 m/s 716 mmHg 59%
13:00 +21°C° 0 mm 3 m/s 716 mmHg 62%
14:00 +21°C° 0 mm 3 m/s 716 mmHg 65%
15:00 +20°C° 0 mm 3 m/s 716 mmHg 71%
16:00 +19°C° 0 mm 2 m/s 716 mmHg 76%
17:00 +18°C° 0 mm 2 m/s 716 mmHg 82%
18:00 +18°C° 0 mm 1 m/s 716 mmHg 86%
19:00 +16°C° 0 mm 1 m/s 716 mmHg 91%
20:00 +14°C° 0 mm 0 m/s 717 mmHg 95%
21:00 +14°C° 0 mm 0 m/s 716 mmHg 94%
22:00 +14°C° 0 mm 0 m/s 716 mmHg 94%
23:00 +14°C° 0 mm 0 m/s 716 mmHg 93%
Voir plus

Nous avons besoin de votre consentement

Meteoprog et ses fournisseurs de services peuvent stocker et accéder à des données personnelles telles que des cookies, des identifiants d'appareils ou d'autres technologies similaires sur votre appareil et traiter ces données pour personnaliser le contenu et les publicités, ainsi que pour fournir des fonctionnalités de médias sociaux et analyser le trafic.

  • Stocker et/ou accéder à des informations sur votre appareil

    Des cookies, des identifiants d'appareils ou d'autres informations peuvent être stockés ou accessibles sur votre appareil aux fins indiquées ci-dessus.

  • Annonces et contenus personnalisés, mesure des annonces et des contenus, connaissance de l'audience et développement de produits

    Les annonces et le contenu peuvent être personnalisés en fonction d'un profil. D'autres données peuvent être ajoutées pour mieux personnaliser les annonces et le contenu. Les performances des publicités et du contenu peuvent être mesurées. Il est possible d'obtenir des informations sur le public qui a vu les publicités et le contenu. Ces données peuvent être utilisées pour développer ou améliorer l'expérience de l'utilisateur, les systèmes et les logiciels.

En cliquant sur "J'accepte", vous autorisez l'utilisation de cookies, des identifiants d'appareils, des balises web ou d'autres technologies similaires. Vos paramètres peuvent être modifiés dans le navigateur de votre appareil.

Dans certains cas, des intérêts légitimes peuvent être invoqués plutôt qu'un consentement. Vous pouvez en savoir plus à ce sujet dans notre Politique de confidentialité et de cookies.